Location: Oberkirch
(48.5323°N, 8.0787°E)
Time: 05:19:38
(UTC+00:00)

Tiros 1 - Pass Details

Date: 22 February 2026
Orbit: 618 x 650 km, 48.4° (Epoch: 13 March)

Event Time Altitude Azimuth Distance (km) Brightness Sun altitude
Rises 09:47:57 0° 275° (W) 2,909 10.2 26.2°
Reaches altitude 10° 09:50:16 10° 275° (W) 1,997 9.4 26.4°
Maximum altitude 09:54:52 86° 189° (S) 628 7.6 26.8°
Drops below altitude 10° 09:59:26 10° 99° (E) 1,982 10.3 27.2°
Sets 10:01:44 0° 99° (E) 2,885 11.0 27.4°
